Location: Great Malvern
(52.1167°N, 2.3167°W)
Time: 05:57:34
(UTC+00:00)

SPOT 1/Viking Rocket - Pass Details

Date: 18 September 2020
Orbit: 777 x 794 km, 98.5° (Epoch: 19 October)

Event Time Altitude Azimuth Distance (km) Brightness Sun altitude
Exits shadow 21:14:24 80° 149° (SSE) 805 3.4 -25.8°
Maximum altitude 21:14:42 88° 75° (ENE) 794 3.4 -25.8°
Drops below altitude 10° 21:19:55 10° 345° (NNW) 2,352 6.7 -26.4°
Sets 21:22:14 0° 346° (NNW) 3,282 7.6 -26.7°
